Brownsville, TX

6:22 AM CST on January 24, 2018 (GMT -0600)
Brownsville-South Padre I International

Weather History for KBRO - May, 2014

Change the Weather History Date:

Wednesday, May 14, 2014

  Actual Average Record
Temperature  
Mean Temperature 68 °F 80 °F  
Max Temperature 77 °F 88 °F 94 °F (2006)
Min Temperature 59 °F 72 °F 57 °F (1976)
Degree Days  
Heating Degree Days 0 0  
Month to date heating degree days 0 0  
Since 1 July heating degree days 824 554  
Cooling Degree Days 3 15  
Month to date cooling degree days 148 195  
Year to date cooling degree days 682 812  
Growing Degree Days 18 (Base 50)    
Moisture  
Dew Point 55 °F    
Average Humidity 68    
Maximum Humidity 93    
Minimum Humidity 43    
Precipitation  
Precipitation 0.00 in 0.09 in 2.89 in (1982)
Month to date precipitation 2.09 1.10  
Year to date precipitation 4.59 6.22  
Sea Level Pressure  
Sea Level Pressure 30.19 in    
Wind  
Wind Speed 12 mph (NNW)    
Max Wind Speed 21 mph    
Max Gust Speed 30 mph    
Visibility 10 miles    
Events      
T = Trace of Precipitation, MM = Missing Value Source: NWS Daily Summary

Daily Weather History Graph

Daily Weather History Graph

Search for Another Location

Airport or City:

Trip Planner

Search our weather history database for the weather conditions in past years. The results will help you decide how hot, cold, wet, or windy it might be!

Date:

Astronomy

May. 14, 2014 Rise Set
Actual Time 6:44 AM CDT 8:08 PM CDT
Civil Twilight 6:19 AM CDT 8:33 PM CDT
Nautical Twilight 5:49 AM CDT 9:02 PM CDT
Astronomical Twilight 5:18 AM CDT 9:33 PM CDT
Moon 8:17 PM CDT (5/14) 6:39 AM CDT (5/14)
Length of Visible Light 14h 13m
Length of Day
13h 23m
Full, 100% of the Moon is Illuminated
May 14
Full
May 14
Full
May 21
Last Quarter
May 28
New
Jun 5
First Quarter

Hourly Weather History & Observations

Time (CDT) Temp. Dew Point Humidity Pressure Visibility Wind Dir Wind Speed Gust Speed Precip Events Conditions
12:34 AM 64.4 °F 60.8 °F 88% 30.12 in 10.0 mi NNW 16.1 mph 23.0 mph N/A   Overcast
12:53 AM 64.9 °F 60.1 °F 84% 30.13 in 10.0 mi NW 12.7 mph 20.7 mph N/A   Overcast
1:39 AM 64.4 °F 60.8 °F 88% 30.13 in 10.0 mi NW 12.7 mph - N/A   Overcast
1:51 AM 64.4 °F 60.8 °F 88% 30.13 in 10.0 mi NW 13.8 mph 23.0 mph N/A   Overcast
1:53 AM 63.0 °F 60.1 °F 90% 30.13 in 10.0 mi NW 17.3 mph 24.2 mph N/A   Overcast
2:53 AM 64.0 °F 59.0 °F 84% 30.13 in 10.0 mi NW 18.4 mph 25.3 mph N/A   Overcast
3:34 AM 64.4 °F 59.0 °F 83% 30.13 in 10.0 mi NNW 15.0 mph 21.9 mph N/A   Overcast
3:53 AM 64.0 °F 57.9 °F 80% 30.13 in 10.0 mi NNW 12.7 mph 20.7 mph N/A   Overcast
4:53 AM 64.0 °F 57.9 °F 80% 30.14 in 10.0 mi NNW 15.0 mph 20.7 mph N/A   Overcast
5:53 AM 64.0 °F 57.0 °F 78% 30.16 in 10.0 mi NNW 13.8 mph 18.4 mph N/A   Overcast
6:53 AM 63.0 °F 53.1 °F 70% 30.18 in 10.0 mi NW 13.8 mph 21.9 mph N/A   Overcast
7:53 AM 62.1 °F 54.0 °F 75% 30.21 in 10.0 mi NNW 18.4 mph 28.8 mph N/A   Overcast
8:28 AM 60.8 °F 53.6 °F 77% 30.23 in 10.0 mi NNW 13.8 mph 24.2 mph N/A   Overcast
8:39 AM 62.6 °F 53.6 °F 72% 30.24 in 10.0 mi NNW 13.8 mph 21.9 mph N/A   Overcast
8:53 AM 63.0 °F 53.1 °F 70% 30.23 in 10.0 mi NNW 17.3 mph 24.2 mph N/A   Overcast
9:05 AM 62.6 °F 53.6 °F 72% 30.24 in 10.0 mi NNW 18.4 mph 29.9 mph N/A   Overcast
9:19 AM 62.6 °F 51.8 °F 68% 30.24 in 10.0 mi NNW 17.3 mph 27.6 mph N/A   Overcast
9:53 AM 63.0 °F 53.1 °F 70% 30.25 in 10.0 mi NNW 18.4 mph 29.9 mph N/A   Overcast
10:04 AM 62.6 °F 53.6 °F 72% 30.25 in 10.0 mi NNW 16.1 mph 26.5 mph N/A   Overcast
10:53 AM 64.0 °F 54.0 °F 70% 30.27 in 10.0 mi NNW 13.8 mph 25.3 mph N/A   Overcast
11:14 AM 64.4 °F 53.6 °F 68% 30.27 in 10.0 mi NNW 18.4 mph 25.3 mph N/A   Overcast
11:53 AM 66.9 °F 54.0 °F 63% 30.26 in 10.0 mi NNW 15.0 mph 28.8 mph N/A   Overcast
12:53 PM 69.1 °F 55.0 °F 61% 30.25 in 10.0 mi NNW 15.0 mph 26.5 mph N/A   Overcast
1:53 PM 72.0 °F 54.0 °F 53% 30.22 in 10.0 mi NW 16.1 mph 27.6 mph N/A   Mostly Cloudy
2:53 PM 73.9 °F 50.0 °F 43% 30.19 in 10.0 mi NNW 16.1 mph 24.2 mph N/A   Mostly Cloudy
3:53 PM 75.9 °F 51.1 °F 42% 30.17 in 10.0 mi North 12.7 mph 24.2 mph N/A   Partly Cloudy
4:53 PM 75.0 °F 52.0 °F 44% 30.16 in 10.0 mi North 15.0 mph 21.9 mph N/A   Mostly Cloudy
5:53 PM 73.9 °F 54.0 °F 50% 30.14 in 10.0 mi NNE 17.3 mph 24.2 mph N/A   Scattered Clouds
6:53 PM 72.0 °F 54.0 °F 53% 30.15 in 10.0 mi NNE 8.1 mph 17.3 mph N/A   Clear
7:53 PM 71.1 °F 50.0 °F 47% 30.17 in 10.0 mi North 6.9 mph - N/A   Clear
8:53 PM 66.9 °F 50.0 °F 54% 30.19 in 10.0 mi Calm Calm - N/A   Clear
9:53 PM 63.0 °F 52.0 °F 67% 30.22 in 10.0 mi Calm Calm - N/A   Clear
10:53 PM 61.0 °F 55.0 °F 81% 30.25 in 10.0 mi Calm Calm - N/A   Clear
11:53 PM 61.0 °F 55.0 °F 81% 30.26 in 10.0 mi Calm Calm - N/A   Clear